Location: ??????????
(54.4061°N, 22.6114°E)
Time: 12:11:33
(UTC+00:00)

STARLINK-42 - Pass Details

Date: 23 October 2019
Orbit: 548 x 551 km, 53.0° (Epoch: 14 November)

Event Time Altitude Azimuth Distance (km) Brightness Sun altitude
Rises 16:14:21 0° 268° (W) 2,718 9.5 -9.4°
Reaches altitude 10° 16:16:36 10° 267° (W) 1,825 7.9 -9.7°
Maximum altitude 16:20:44 74° 182° (S) 575 3.7 -10.3°
Enters shadow 16:24:09 15° 99° (E) 1,542 5.3 -10.8°
